Wind_Speed
68 70 73 80 83 86 89 95 97 97 101 103 113 111 114 117 114 117 115 103 82 57 44 30 19 7 12 27 45 60 74 84 90 93 98 109 117 120 124 123 126 126 129
66 70 72 78 81 84 89 93 95 97 99 103 111 112 112 114 115 116 115 106 88 61 43 31 19 8 9 25 44 57 72 88 92 97 100 110 122 127 123 123 127 124 128
66 72 73 78 80 83 89 92 95 98 99 103 108 114 112 114 114 115 113 108 95 67 46 31 20 10 10 23 44 55 71 85 95 99 103 108 119 124 127 123 123 128 123
69 76 76 77 78 84 88 91 93 97 98 103 105 112 109 114 114 114 112 112 98 75 49 35 22 12 9 19 39 56 68 84 94 99 106 112 118 123 122 124 123 122 123
73 75 75 76 78 83 88 89 92 97 99 100 106 109 108 111 112 112 113 113 101 82 54 38 25 14 8 17 31 51 65 81 95 101 106 112 117 123 123 122 121 118 118
70 75 76 76 80 85 88 89 92 96 99 96 107 106 108 109 110 110 114 113 104 86 62 39 28 17 9 13 24 44 60 74 94 103 106 112 114 121 121 123 123 125 123
73 78 78 79 82 85 86 87 93 97 95 96 103 105 106 107 108 110 115 110 110 91 69 46 33 21 12 9 21 35 54 69 84 102 108 108 115 119 123 124 122 122 121
78 81 82 80 83 85 85 88 93 96 92 96 99 103 103 105 106 109 111 112 115 98 77 54 36 27 15 9 15 30 46 63 79 94 105 110 114 119 122 123 122 122 120
80 83 79 80 85 86 85 89 91 93 91 93 100 99 100 101 104 107 110 112 112 104 86 63 41 31 20 11 11 23 38 52 70 87 100 105 113 116 121 118 118 117 115
84 83 83 84 81 82 86 88 85 89 88 94 97 96 98 101 104 104 107 111 109 110 91 69 49 34 24 15 10 18 29 44 58 75 90 103 107 111 113 119 114 117 118
85 83 79 80 77 85 87 84 84 85 86 92 95 94 96 99 100 100 106 110 111 112 100 77 53 39 29 19 11 14 25 35 48 62 77 92 105 107 109 112 119 119 117
80 74 74 74 80 85 86 82 85 85 83 89 92 91 92 96 98 98 103 108 110 110 104 88 59 39 33 22 16 11 21 30 40 50 64 77 90 102 110 109 108 112 118
71 73 73 76 83 81 83 82 80 83 81 87 88 89 90 93 95 96 98 105 111 109 106 94 68 45 30 27 18 14 15 28 34 42 51 65 78 86 99 109 109 109 113
72 75 77 76 77 77 80 84 81 81 81 84 86 85 89 89 94 94 97 105 111 109 107 94 72 50 33 21 22 15 15 22 31 36 43 50 66 76 83 97 106 107 107
73 72 76 80 75 80 82 83 82 81 79 80 82 82 86 86 92 94 96 102 109 108 106 93 72 50 35 26 17 18 15 18 27 32 37 44 52 66 73 79 89 100 105
71 79 76 73 75 80 79 79 79 78 79 79 78 81 84 86 89 94 96 101 107 109 106 92 71 48 36 27 20 17 13 16 23 30 36 40 47 56 67 70 73 82 90
78 81 71 72 74 76 76 76 75 73 78 79 77 80 83 85 88 94 96 100 105 107 107 93 73 49 35 26 20 15 10 15 22 30 33 38 42 47 57 65 66 67 73
77 69 69 70 70 72 73 75 73 73 74 77 80 81 80 84 88 92 95 98 102 105 107 94 75 54 37 28 21 12 7 13 21 29 31 35 39 44 49 57 63 63 63
71 64 66 70 72 72 73 75 72 73 73 78 79 81 80 83 86 90 94 96 99 101 104 91 78 58 40 30 22 12 1 9 20 26 28 32 36 41 44 52 58 59 58
67 64 63 63 64 68 69 71 71 72 75 79 79 81 81 82 87 90 93 93 96 97 98 88 81 62 44 33 24 14 3 8 18 22 25 30 34 37 40 47 53 56 54
68 67 67 69 67 68 68 70 74 76 75 79 82 82 83 82 86 90 91 91 91 91 92 85 81 66 46 33 24 13 3 8 15 18 22 28 32 35 40 45 50 52 53
73 73 73 72 73 72 70 74 76 78 78 79 81 84 85 83 86 88 89 91 90 83 85 80 79 67 48 31 23 12 3 8 13 17 21 27 33 37 42 45 49 51 53
77 78 78 78 78 75 76 79 82 82 80 82 84 88 87 84 86 87 87 89 87 80 76 74 75 65 48 31 21 13 4 8 13 16 22 27 33 38 44 48 52 54 59
83 80 80 81 84 83 83 86 85 82 81 83 82 87 89 86 85 86 84 86 83 75 71 72 72 66 47 32 21 14 7 10 15 18 21 28 35 40 48 52 57 63 66
86 82 81 86 87 85 87 87 88 85 84 84 85 88 87 86 84 85 84 83 78 71 67 70 70 61 46 33 20 15 11 12 17 20 23 29 37 43 49 56 64 67 69
94 92 92 93 93 91 90 90 89 88 86 85 86 88 87 86 83 83 81 79 74 66 64 66 67 56 46 33 22 14 14 15 20 23 25 30 36 45 52 57 66 71 71
Wind_Direction
329 330 330 331 333 336 337 339 341 343 344 348 349 348 352 354 358 3 4 1 358 355 357 350 333 287 213 195 190 190 191 191 191 194 193 193 194 198 202 203 207 211 215
328 327 328 328 331 335 336 337 339 342 344 345 347 347 351 354 357 3 4 4 359 355 359 354 336 293 218 195 190 194 193 196 196 197 197 197 197 199 203 207 211 214 217
323 321 323 325 329 332 333 335 337 339 342 343 344 347 348 353 356 2 5 5 2 355 355 356 347 304 223 198 192 193 195 197 199 199 199 201 200 203 205 208 212 215 218
317 319 322 323 327 330 331 332 334 337 340 342 343 346 346 351 355 359 5 6 5 358 354 356 351 321 249 206 195 195 197 199 199 200 198 201 201 204 207 210 213 218 220
315 318 321 323 325 327 329 331 331 335 337 341 342 343 345 349 352 358 4 6 5 0 356 353 349 338 265 221 202 198 198 201 202 202 201 202 204 205 208 212 215 217 221
315 318 319 322 323 326 327 329 330 333 335 338 342 341 345 347 351 357 2 3 5 1 356 358 347 345 306 224 210 201 202 202 204 204 204 204 206 207 210 213 216 220 221
311 315 318 319 321 324 325 326 328 331 334 337 341 341 345 347 351 355 359 2 6 4 358 356 354 342 323 240 215 205 204 205 206 208 206 208 207 209 211 215 217 220 224
309 313 316 316 320 322 323 325 327 329 332 335 337 339 343 346 350 353 356 1 3 4 1 355 354 342 334 291 223 213 205 206 208 209 211 210 211 211 215 216 218 221 223
307 311 313 314 318 320 320 323 325 330 329 333 336 337 341 346 350 352 354 358 359 2 2 357 350 348 332 315 244 220 212 208 208 211 212 214 214 213 217 218 220 223 226
309 311 310 311 315 316 318 319 322 325 327 329 335 334 338 345 350 351 353 355 358 1 1 358 351 349 336 325 272 226 218 210 211 211 213 215 217 216 217 220 222 225 226
304 307 308 309 313 316 316 315 318 323 324 328 334 333 336 345 348 350 351 352 356 359 359 356 354 345 343 328 302 240 218 216 211 211 214 216 218 220 219 220 221 224 229
302 302 308 307 312 316 311 313 316 320 320 328 331 331 334 344 346 349 348 351 353 356 357 355 351 348 339 330 314 265 224 217 214 211 214 214 219 221 222 224 224 223 229
297 305 305 305 310 307 309 309 312 319 319 324 328 329 334 341 345 348 348 348 351 354 355 355 348 346 346 325 317 295 236 219 218 212 213 215 215 219 221 224 227 224 228
300 301 302 303 307 306 306 307 309 315 316 321 326 327 333 339 343 346 347 346 349 352 354 354 348 343 341 333 309 301 267 225 219 218 212 213 215 216 219 222 224 227 229
297 299 302 308 304 304 305 304 307 310 315 320 323 326 333 337 341 344 345 345 346 350 352 354 350 342 339 335 317 297 277 242 215 215 214 209 211 214 218 219 222 225 228
298 304 306 305 301 298 298 302 305 311 315 316 320 325 333 335 339 342 344 344 344 347 352 353 351 344 340 336 325 309 287 245 218 207 210 209 208 209 214 219 221 225 227
298 305 304 298 293 295 298 299 306 309 313 314 319 325 331 333 337 340 342 343 342 346 351 351 352 346 346 343 336 319 269 224 212 202 207 206 207 207 209 214 217 221 223
301 303 297 291 292 294 298 299 304 309 309 314 319 324 329 332 335 338 340 342 342 344 347 350 352 349 350 351 350 333 264 207 197 195 202 203 204 206 208 210 213 215 218
301 297 292 287 291 294 297 298 303 306 309 314 318 322 327 330 333 335 337 340 341 341 345 350 353 352 352 355 359 357 321 185 186 190 197 199 200 203 204 207 208 208 211
296 294 292 288 290 292 295 299 302 305 310 312 315 319 323 329 330 331 334 338 340 339 343 347 353 352 352 356 358 2 25 172 184 188 195 197 197 198 200 201 201 201 202
289 290 292 291 292 292 296 299 302 303 307 310 313 315 319 325 326 329 332 334 338 339 341 345 351 351 350 354 351 359 8 181 187 192 195 194 194 192 194 194 193 195 194
286 286 289 288 289 291 295 298 300 303 306 307 310 312 316 321 323 326 329 331 335 338 338 343 348 350 348 349 345 347 327 202 199 197 196 193 191 191 189 189 189 188 185
279 281 283 284 285 288 290 294 297 300 302 304 308 309 312 317 321 325 326 330 332 335 337 342 346 348 345 344 342 328 281 220 211 204 198 196 195 190 188 187 185 184 182
272 275 277 277 280 283 288 290 293 295 298 301 304 305 309 314 320 322 324 327 330 333 336 340 344 344 342 341 336 314 271 216 215 211 206 197 194 192 187 184 183 182 184
269 271 271 272 275 279 283 285 288 292 296 298 300 302 307 309 316 317 321 324 328 331 335 337 342 344 339 336 330 309 268 228 211 214 209 206 198 196 191 187 184 185 188
268 268 269 268 270 274 277 279 283 287 290 291 294 298 302 306 312 314 320 322 326 329 332 336 340 342 337 332 325 306 264 232 215 211 213 209 206 201 196 194 190 189 193
Height
10537 10527 10516 10503 10491 10479 10466 10453 10439 10423 10406 10389 10372 10352 10332 10310 10288 10262 10237 10214 10191 10178 10165 10159 10155 10155 10155 10158 10167 10179 10193 10204 10215 10229 10241 10251 10265 10282 10297 10309 10317 10330 10339
10530 10519 10509 10497 10484 10471 10460 10447 10433 10419 10402 10386 10368 10349 10331 10309 10286 10262 10238 10217 10194 10179 10167 10159 10156 10154 10156 10158 10165 10176 10188 10200 10212 10220 10233 10240 10249 10264 10281 10297 10311 10322 10330
10521 10512 10502 10490 10477 10465 10453 10441 10427 10413 10398 10383 10365 10347 10327 10306 10285 10263 10241 10220 10199 10180 10169 10158 10156 10154 10155 10158 10162 10171 10183 10195 10206 10217 10227 10237 10249 10259 10272 10288 10299 10312 10331
10513 10505 10494 10483 10470 10458 10446 10434 10420 10407 10393 10380 10362 10345 10324 10305 10284 10261 10241 10222 10202 10183 10171 10159 10154 10153 10153 10157 10160 10166 10178 10190 10202 10212 10221 10230 10240 10254 10268 10281 10295 10309 10323
10505 10496 10486 10474 10462 10451 10439 10428 10415 10402 10388 10374 10358 10342 10322 10303 10281 10259 10238 10223 10203 10185 10172 10160 10153 10151 10152 10153 10158 10163 10171 10184 10196 10205 10213 10222 10234 10246 10258 10271 10286 10300 10311
10496 10487 10477 10466 10454 10444 10432 10422 10409 10396 10383 10369 10354 10337 10320 10301 10278 10256 10237 10220 10203 10187 10170 10162 10152 10148 10149 10150 10153 10159 10165 10175 10187 10196 10205 10214 10226 10238 10251 10261 10273 10285 10299
10486 10478 10467 10457 10446 10436 10425 10415 10403 10389 10377 10365 10350 10332 10316 10299 10276 10253 10234 10218 10202 10187 10171 10159 10152 10146 10145 10147 10150 10153 10159 10166 10177 10187 10197 10207 10219 10230 10240 10248 10264 10276 10290
10474 10467 10458 10447 10437 10427 10418 10408 10397 10384 10372 10358 10344 10328 10312 10295 10274 10251 10233 10217 10202 10186 10172 10158 10150 10144 10141 10141 10144 10147 10150 10157 10166 10177 10188 10200 10209 10222 10224 10242 10255 10266 10280
10464 10456 10447 10437 10428 10419 10410 10401 10391 10379 10365 10352 10338 10323 10309 10292 10272 10249 10230 10215 10199 10185 10172 10158 10147 10142 10136 10135 10136 10141 10144 10149 10157 10167 10179 10191 10201 10210 10222 10237 10249 10261 10273
10452 10444 10436 10427 10419 10410 10401 10393 10383 10372 10359 10346 10332 10318 10302 10285 10268 10248 10230 10214 10199 10184 10169 10157 10144 10137 10133 10130 10129 10132 10137 10141 10147 10156 10168 10180 10189 10205 10215 10226 10243 10248 10264
10439 10432 10424 10417 10409 10401 10392 10383 10374 10365 10351 10341 10327 10312 10297 10282 10264 10246 10228 10212 10197 10182 10165 10154 10144 10132 10128 10125 10123 10123 10128 10133 10139 10146 10155 10167 10180 10190 10206 10216 10230 10242 10249
10426 10420 10413 10406 10399 10390 10382 10372 10365 10357 10344 10333 10320 10307 10293 10277 10260 10243 10226 10210 10197 10180 10164 10149 10139 10131 10121 10118 10117 10116 10117 10123 10129 10135 10142 10154 10165 10179 10193 10204 10221 10239 10241
10412 10407 10400 10394 10387 10378 10371 10362 10356 10347 10335 10325 10312 10300 10288 10272 10256 10240 10226 10209 10194 10178 10163 10148 10132 10124 10118 10111 10109 10109 10109 10112 10118 10124 10130 10140 10151 10163 10179 10190 10205 10224 10229
10399 10394 10388 10381 10374 10365 10359 10351 10346 10337 10326 10316 10305 10293 10281 10267 10252 10237 10222 10204 10188 10176 10160 10144 10129 10117 10110 10108 10101 10101 10101 10103 10107 10114 10120 10129 10139 10151 10163 10178 10193 10207 10222
10384 10379 10374 10368 10361 10352 10346 10337 10333 10326 10316 10307 10297 10286 10274 10259 10245 10230 10217 10201 10184 10171 10156 10140 10124 10111 10102 10098 10095 10092 10093 10095 10097 10103 10112 10119 10129 10140 10151 10165 10179 10195 10205
10366 10361 10357 10353 10346 10337 10330 10323 10320 10314 10306 10297 10289 10278 10266 10252 10239 10224 10211 10196 10176 10162 10150 10133 10119 10106 10096 10089 10086 10083 10084 10086 10089 10095 10102 10110 10120 10129 10141 10154 10170 10182 10196
10349 10345 10341 10337 10330 10321 10317 10311 10307 10302 10295 10287 10279 10270 10259 10245 10232 10217 10206 10192 10171 10156 10140 10126 10111 10099 10091 10083 10079 10075 10075 10077 10080 10086 10094 10103 10112 10122 10132 10145 10159 10172 10188
10332 10328 10326 10323 10317 10308 10305 10299 10295 10291 10283 10275 10267 10260 10253 10239 10227 10213 10201 10188 10169 10150 10137 10122 10106 10093 10085 10078 10073 10070 10070 10071 10075 10081 10088 10097 10106 10114 10125 10137 10151 10166 10178
10315 10312 10310 10309 10304 10296 10293 10286 10282 10278 10271 10264 10256 10250 10244 10233 10221 10208 10196 10185 10168 10150 10135 10120 10104 10092 10083 10076 10071 10069 10068 10070 10073 10079 10086 10094 10102 10110 10120 10131 10143 10157 10171
10296 10296 10295 10294 10290 10283 10279 10273 10268 10264 10259 10252 10246 10241 10235 10226 10214 10203 10192 10181 10166 10148 10135 10120 10106 10094 10084 10078 10073 10070 10070 10072 10075 10080 10086 10092 10099 10106 10116 10127 10139 10153 10166
10277 10278 10278 10279 10274 10268 10264 10258 10254 10250 10247 10240 10235 10230 10225 10219 10209 10198 10186 10176 10165 10149 10134 10120 10108 10097 10088 10082 10077 10073 10073 10075 10077 10081 10086 10091 10098 10106 10116 10126 10137 10150 10163
10258 10258 10258 10260 10257 10253 10251 10245 10240 10237 10235 10228 10223 10217 10213 10210 10201 10192 10180 10168 10159 10149 10134 10122 10108 10099 10091 10085 10081 10076 10075 10077 10079 10083 10087 10092 10098 10106 10115 10125 10137 10148 10160
10241 10241 10241 10242 10239 10239 10237 10231 10227 10225 10221 10216 10212 10203 10201 10200 10193 10185 10174 10163 10154 10143 10132 10121 10108 10098 10091 10086 10082 10079 10076 10077 10080 10083 10088 10092 10099 10106 10114 10124 10134 10146 10157
10222 10223 10223 10223 10221 10222 10221 10215 10213 10211 10209 10203 10200 10191 10188 10187 10182 10174 10167 10158 10148 10137 10127 10118 10108 10096 10090 10085 10081 10080 10077 10077 10079 10083 10088 10093 10099 10106 10114 10124 10133 10143 10154
10199 10202 10205 10201 10201 10204 10202 10200 10196 10195 10194 10189 10184 10177 10177 10175 10174 10165 10158 10150 10142 10131 10122 10112 10105 10095 10087 10082 10079 10077 10076 10076 10078 10082 10086 10092 10098 10105 10112 10122 10131 10141 10151
10174 10179 10182 10180 10183 10185 10183 10181 10180 10180 10178 10174 10169 10165 10165 10163 10163 10155 10148 10140 10133 10124 10115 10107 10100 10091 10082 10078 10075 10074 10073 10073 10074 10078 10083 10089 10096 10103 10111 10118 10127 10137 10147